Regional Weather Roundup
Issued by NWS Green Bay, WI

Home | Current Version | Previous Version | Text Only | Print | Product List | Glossary On
Versions: 1 2 3 4 5 6 7 8 9 10 11 12 13 14 15 16 17 18 19 20 21 22 23 24 25 26 27 28 29 30 31 32 33 34 35 36 37 38 39 40 41 42 43 44 45 46 47 48 49 50
000
ASUS43 KGRB 080611
RWRGRB

NORTH-CENTRAL AND NORTHEAST WISCONSIN REGIONAL WEATHER ROUNDUP
NATIONAL WEATHER SERVICE GREEN BAY WI
1200 AM CST MON FEB 08 2016

WIZ005-009-010>012-018-019-080700-
NORTH CENTRAL WISCONSIN

CITY           SKY/WX    TMP DP  RH WIND       PRES   REMARKS
IRONWOOD       CLOUDY    28  25  86 CALM      29.50R
MANITOWISH WTR FLURRIES  28  26  95 W9        29.51S
ARBOR VITAE    FLURRIES  32  30  92 NW7       29.51S
EAGLE RIVER    CLOUDY    30  30  99 CALM      29.50S
LAND O LAKES   CLOUDY    31  30  97 W3        29.50S
RHINELANDER    LGT SNOW  31  28  89 W9        29.51S FOG
PHILLIPS       FLURRIES  25  23  91 W6        29.55S
ANTIGO         LGT SNOW  30  30  99 SW7       29.52F
TOMAHAWK       CLOUDY    28  25  87 W13       29.54S
MERRILL        LGT SNOW  30  28  94 W7        29.55S
$$

WIZ013-073-080700-
NORTHEAST WISCONSIN

CITY           SKY/WX    TMP DP  RH WIND       PRES   REMARKS
IRON MOUNTAIN  CLOUDY    32  29  88 SW5       29.52S FOG
MARINETTE      CLOUDY    36  28  75 CALM      29.56S
OCONTO         CLOUDY    35  28  75 CALM      29.56F
$$

WIZ017-030-035>037-045-080700-
CENTRAL WISCONSIN

CITY           SKY/WX    TMP DP  RH WIND       PRES   REMARKS
MEDFORD        FLURRIES  25  23  90 W13G23    29.56S
WAUSAU         CLOUDY    32  27  81 NW12      29.54R
MOSINEE        CLOUDY    30  28  93 W14G23    29.57R
MARSHFIELD     LGT SNOW  27  22  81 W13       29.58R
WISC RAPIDS    CLOUDY    31  24  75 NW10      29.60S
STEVENS POINT  CLOUDY    30  27  87 W7G16     29.57S
WAUPACA        CLOUDY    37  29  75 W8        29.57S
SHAWANO        CLOUDY    37  28  69 CALM      29.56S
CLINTONVILLE   CLOUDY    34  28  80 SW5       29.56F
WAUTOMA        CLOUDY    35  31  86 W8        29.58F
$$

WIZ038-039-048-051-080700-
FOX VALLEY

CITY           SKY/WX    TMP DP  RH WIND       PRES   REMARKS
NWS GREEN BAY  CLOUDY    35  28  75 SW5       29.57F
APPLETON       CLOUDY    34  27  75 S7        29.55F
OSHKOSH        CLOUDY    35  27  72 SW8       29.58F
FOND DU LAC    CLOUDY    33  26  75 SW8       29.59F
$$

WIZ022-050-052-080700-
EAST CENTRAL WISCONSIN

CITY           SKY/WX    TMP DP  RH WIND       PRES   REMARKS
EPHRAIM        CLOUDY    35  28  74 W7        29.55F
STURGEON BAY   CLOUDY    36  27  69 SW6       29.59S
MANITOWOC      PTCLDY    34  27  75 SW5       29.59F
SHEBOYGAN      PTCLDY    28  23  81 S6        29.59F
$$

LMZ563-521-522-541>543-080700-
LAKESHORE

STATION/POSITION TIME  TEMP    WIND        PRES    VSBY  WAVE
                       AIR SEA DIR/SP/G                  HT/PER
                 (UTC) (F)     (DEG/KT/KT) (MB)    (MI)  (FT/S)
SHEBOYGAN LKSHOR 0600   33     220/  6/  7 1003.0F
KEWAUNEE LKSHORE 0500   36     250/  5/  7 1001.5S
NORTHPORT PIER   0500   38     240/  2/  8 1001.4F
CHAMBERS ISLAND  0500   35     190/  4/  8 1001.7F
MENOMINEE LKSHOR 0500   36     190/  4     1000.3F
$$



USA.gov is the U.S. government's official web portal to all federal, state and local government web resources and services.